Total_Precipitation_Accumulation
0.02 0.01 0.01 0.01 0.02 0.06 0.10 0.14 0.17 0.19 0.19 0.17 0.15 0.12 0.10 0.10 0.12 0.13 0.14 0.15 0.14 0.12 0.09 0.09 0.13 0.19 0.21 0.22 0.26 0.29 0.31 0.36 0.32 0.30 0.36 0.32 0.27 0.18 0.13 0.11 0.07 0.05 0.04
0.00 0.00 0.00 0.00 0.00 0.01 0.03 0.07 0.13 0.18 0.19 0.19 0.17 0.14 0.10 0.08 0.09 0.09 0.11 0.14 0.18 0.17 0.15 0.14 0.12 0.13 0.15 0.14 0.15 0.21 0.28 0.38 0.39 0.25 0.21 0.22 0.21 0.18 0.15 0.12 0.09 0.05 0.04
0.00 0.00 0.00 0.00 0.00 0.00 0.01 0.01 0.03 0.08 0.13 0.16 0.16 0.14 0.11 0.10 0.08 0.06 0.07 0.09 0.13 0.15 0.17 0.21 0.19 0.17 0.14 0.06 0.03 0.06 0.15 0.30 0.38 0.28 0.21 0.22 0.21 0.18 0.15 0.12 0.10 0.07 0.04
0.00 0.00 0.00 0.01 0.01 0.02 0.02 0.02 0.02 0.02 0.06 0.10 0.13 0.14 0.13 0.11 0.09 0.08 0.07 0.07 0.07 0.09 0.14 0.17 0.16 0.16 0.15 0.09 0.03 0.02 0.08 0.17 0.23 0.25 0.29 0.38 0.34 0.23 0.15 0.13 0.11 0.08 0.05
0.00 0.00 0.00 0.01 0.01 0.02 0.03 0.04 0.04 0.04 0.04 0.08 0.13 0.14 0.13 0.11 0.09 0.09 0.09 0.07 0.07 0.07 0.09 0.12 0.10 0.10 0.09 0.07 0.04 0.04 0.07 0.12 0.21 0.28 0.44 0.70 0.66 0.46 0.26 0.14 0.11 0.09 0.06
0.01 0.01 0.01 0.02 0.02 0.03 0.03 0.03 0.03 0.03 0.04 0.06 0.10 0.13 0.12 0.11 0.09 0.07 0.07 0.08 0.09 0.09 0.11 0.11 0.09 0.07 0.07 0.06 0.05 0.04 0.04 0.07 0.17 0.30 0.47 0.63 0.66 0.55 0.36 0.21 0.11 0.07 0.08
0.00 0.00 0.01 0.02 0.03 0.03 0.04 0.04 0.04 0.04 0.05 0.06 0.07 0.11 0.12 0.13 0.12 0.07 0.06 0.08 0.09 0.11 0.13 0.14 0.11 0.07 0.06 0.06 0.05 0.04 0.03 0.03 0.07 0.15 0.32 0.49 0.55 0.50 0.35 0.23 0.14 0.10 0.08
0.00 0.01 0.01 0.02 0.03 0.04 0.06 0.06 0.07 0.07 0.07 0.06 0.06 0.08 0.11 0.15 0.17 0.13 0.09 0.08 0.11 0.12 0.13 0.13 0.12 0.09 0.06 0.04 0.04 0.03 0.02 0.02 0.04 0.08 0.17 0.28 0.33 0.31 0.26 0.22 0.19 0.16 0.12
0.02 0.02 0.04 0.05 0.07 0.09 0.10 0.10 0.11 0.10 0.09 0.06 0.05 0.05 0.09 0.14 0.17 0.16 0.14 0.10 0.11 0.14 0.15 0.16 0.15 0.11 0.08 0.06 0.03 0.02 0.02 0.02 0.04 0.06 0.10 0.15 0.18 0.19 0.17 0.18 0.19 0.15 0.14
0.05 0.06 0.06 0.08 0.11 0.14 0.16 0.17 0.16 0.14 0.11 0.08 0.05 0.04 0.06 0.14 0.19 0.18 0.17 0.13 0.13 0.16 0.21 0.23 0.22 0.17 0.12 0.08 0.05 0.03 0.02 0.01 0.01 0.02 0.05 0.09 0.11 0.13 0.14 0.11 0.10 0.09 0.07
0.09 0.09 0.09 0.11 0.14 0.15 0.16 0.16 0.17 0.15 0.14 0.12 0.09 0.07 0.07 0.11 0.22 0.23 0.21 0.18 0.16 0.19 0.26 0.33 0.30 0.28 0.20 0.13 0.09 0.06 0.03 0.02 0.01 0.01 0.03 0.07 0.10 0.11 0.10 0.10 0.08 0.05 0.03
0.10 0.10 0.10 0.11 0.11 0.10 0.13 0.15 0.16 0.18 0.16 0.13 0.12 0.10 0.09 0.08 0.12 0.23 0.20 0.16 0.15 0.17 0.28 0.43 0.45 0.43 0.35 0.24 0.16 0.10 0.06 0.03 0.02 0.02 0.03 0.05 0.08 0.08 0.08 0.07 0.06 0.04 0.02
0.11 0.11 0.10 0.10 0.11 0.12 0.15 0.16 0.16 0.16 0.14 0.09 0.08 0.12 0.13 0.11 0.09 0.17 0.18 0.13 0.13 0.18 0.26 0.48 0.60 0.59 0.50 0.39 0.28 0.19 0.10 0.05 0.02 0.02 0.02 0.02 0.03 0.04 0.04 0.04 0.04 0.03 0.02
0.15 0.14 0.13 0.14 0.15 0.16 0.20 0.21 0.21 0.18 0.15 0.11 0.09 0.14 0.15 0.13 0.10 0.13 0.18 0.14 0.15 0.22 0.24 0.35 0.54 0.64 0.60 0.52 0.41 0.28 0.14 0.07 0.03 0.02 0.01 0.01 0.02 0.02 0.02 0.02 0.02 0.01 0.01
0.22 0.19 0.19 0.19 0.19 0.18 0.19 0.20 0.20 0.19 0.16 0.13 0.13 0.18 0.19 0.16 0.15 0.15 0.19 0.20 0.19 0.23 0.22 0.28 0.45 0.59 0.61 0.56 0.48 0.35 0.20 0.10 0.05 0.03 0.02 0.01 0.02 0.02 0.02 0.02 0.02 0.01 0.01
0.28 0.23 0.21 0.21 0.20 0.20 0.19 0.17 0.14 0.11 0.10 0.09 0.09 0.12 0.16 0.13 0.10 0.08 0.13 0.17 0.18 0.19 0.19 0.24 0.34 0.47 0.56 0.58 0.53 0.41 0.24 0.12 0.05 0.03 0.02 0.02 0.02 0.02 0.02 0.01 0.02 0.02 0.01
0.27 0.23 0.21 0.20 0.18 0.16 0.15 0.14 0.13 0.11 0.07 0.05 0.06 0.07 0.09 0.06 0.04 0.06 0.09 0.12 0.13 0.12 0.12 0.16 0.22 0.30 0.41 0.51 0.51 0.39 0.25 0.14 0.06 0.04 0.03 0.02 0.02 0.02 0.02 0.01 0.01 0.01 0.01
0.23 0.23 0.21 0.19 0.16 0.11 0.09 0.09 0.10 0.12 0.12 0.09 0.07 0.06 0.07 0.05 0.08 0.11 0.10 0.12 0.11 0.09 0.07 0.09 0.13 0.18 0.28 0.41 0.44 0.37 0.26 0.15 0.07 0.04 0.03 0.02 0.01 0.01 0.01 0.01 0.00 0.00 0.00
0.23 0.18 0.14 0.12 0.11 0.08 0.07 0.08 0.09 0.09 0.10 0.17 0.14 0.06 0.08 0.08 0.16 0.23 0.15 0.14 0.11 0.08 0.05 0.06 0.08 0.11 0.19 0.32 0.37 0.32 0.23 0.14 0.06 0.03 0.01 0.01 0.01 0.01 0.01 0.00 0.00 0.00 0.00
0.17 0.14 0.09 0.06 0.05 0.06 0.08 0.10 0.08 0.07 0.10 0.19 0.16 0.07 0.05 0.09 0.22 0.30 0.20 0.17 0.14 0.08 0.05 0.05 0.04 0.06 0.12 0.23 0.29 0.26 0.20 0.11 0.04 0.02 0.01 0.00 0.00 0.00 0.00 0.00 0.00 0.00 0.00
0.12 0.09 0.06 0.04 0.04 0.07 0.10 0.09 0.08 0.10 0.14 0.22 0.20 0.09 0.05 0.09 0.22 0.27 0.18 0.16 0.13 0.09 0.06 0.04 0.03 0.04 0.08 0.16 0.20 0.18 0.13 0.07 0.03 0.01 0.00 0.00 0.00 0.00 0.00 0.00 0.00 0.00 0.00
0.12 0.09 0.07 0.07 0.11 0.12 0.12 0.12 0.15 0.18 0.19 0.21 0.15 0.06 0.07 0.13 0.19 0.20 0.15 0.11 0.08 0.06 0.04 0.03 0.02 0.02 0.04 0.09 0.11 0.10 0.07 0.04 0.01 0.00 0.00 0.00 0.00 0.00 0.00 0.00 0.00 0.00 0.00
0.16 0.14 0.11 0.13 0.16 0.12 0.13 0.15 0.17 0.18 0.17 0.15 0.12 0.10 0.11 0.14 0.13 0.12 0.10 0.08 0.06 0.04 0.03 0.02 0.01 0.01 0.02 0.05 0.06 0.04 0.03 0.01 0.00 0.00 0.00 0.00 0.00 0.00 0.00 0.00 0.00 0.00 0.00
0.12 0.13 0.11 0.08 0.08 0.08 0.10 0.10 0.09 0.09 0.11 0.11 0.11 0.11 0.09 0.08 0.07 0.06 0.06 0.05 0.04 0.03 0.02 0.01 0.01 0.01 0.01 0.02 0.02 0.01 0.01 0.00 0.00 0.00 0.00 0.00 0.00 0.00 0.00 0.00 0.00 0.00 0.00
0.12 0.12 0.10 0.08 0.05 0.04 0.06 0.06 0.07 0.08 0.09 0.07 0.05 0.05 0.04 0.04 0.04 0.04 0.04 0.04 0.03 0.03 0.02 0.01 0.01 0.00 0.00 0.01 0.01 0.00 0.00 0.00 0.00 0.00 0.00 0.00 0.00 0.00 0.00 0.00 0.00 0.00 0.00
0.11 0.13 0.14 0.14 0.11 0.09 0.09 0.11 0.12 0.10 0.08 0.04 0.02 0.02 0.04 0.04 0.03 0.03 0.03 0.04 0.03 0.03 0.02 0.01 0.00 0.00 0.00 0.00 0.00 0.00 0.00 0.00 0.00 0.00 0.00 0.00 0.00 0.00 0.00 0.00 0.00 0.00 0.00